Location: ????????
(56.1167°N, 38.6333°E)
Time: 22:13:24
(UTC+00:00)

NOAA 6 - Pass Details

Date: 18 November 2025
Orbit: 766 x 782 km, 98.6° (Epoch: 06 December)

Event Time Altitude Azimuth Distance (km) Brightness Sun altitude
Rises 15:39:23 0° 157° (SSE) 3,254 7.1 -19.9°
Reaches altitude 10° 15:41:42 10° 156° (SSE) 2,329 6.3 -20.3°
Maximum altitude 15:46:50 79° 71° (ENE) 798 3.9 -21.0°
Drops below altitude 10° 15:51:59 10° 345° (NNW) 2,335 6.6 -21.7°
Sets 15:54:18 0° 345° (NNW) 3,264 7.4 -22.0°
